ATLAS CENTAUR 2 R/B, 694

Orbit data source: Space-Track

ATLAS CENTAUR 2 R/B, 694 is space debris in LEO originally from a launch on Wed, 27 Nov 1963 UTC via an ATLAS CENTAUR launch vehicle from the Air Force Eastern Test Range (AFETR). Debris objects in space refer to the collection of defunct objects orbiting the Earth. Examples of debris include non-operational satellites, rocket bodies, and fragments generated from explosions, collisions, or faulty payload assembly.

Loading next visibility...
Identifier
694, 1963-047A
Orbit
LEO
Last TLE update
8 hours ago
Origin
Manufacturer
GD/Convair
Mission
Civil Technology
Bus & Motor
AC R&D, Unknown motor
Mass
4,300 kg wet, 900 kg dry
Launch date (UTC)
1963-11-27 (61 years ago)
Launch vehicle
ATLAS CENTAUR
Launch site
Air Force Eastern Test Range (AFETR)
Object type
Payload
Rocket body
Debris
Shape & HBR
Cyl + 2 Nozzle, 8.59 m
Radar Cross Section
24.688 m², Large (>1 m²)

Expand to show TLE details & history

TLE from 8 hours ago
0 ATLAS CENTAUR 2 R/B
1 00694U 63047A   25128.89353690  .00002574  00000-0  30442-3 0  9994
2 00694  30.3573  96.9401 0553936 277.3532  76.4470 14.10533626 88534
Epoch: 2025-05-08T21:26Z
Definitive object data (Epoch: 2025-05-08T21:26:41.588Z)
Latitude
-0.00001°
Longitude
-91.6907°
Altitude
783.504 km
Speed
7.502 km/s
True Right ascension
06h 27m 45s
True Declination
0° 00' 00"
Sunlit
Object was in daylight at TLE epoch
Visualization TLE readout
Latitude
-0.98525°
Longitude
88.19216°
Altitude
892.111 km
Speed
7.39 km/s
Apparent Right ascension
20h 57m 54s
Apparent Declination
-28° 12' 03"
Sunlit
Object is in full shadow
Visualization observer readout
Local Sidereal Time
13:17:59
Azimuth
98.8° ESE
Elevation
-36.06°
Doppler factor
1
Orbital elements
Apogee altitude
1,262.344 km
Perigee altitude
460.304 km
Semi-major axis
7,239.461 km
Eccentricity
0.0553936
Inclination
30.3573°
RAAN
96.9401°
Arg. of periapsis
277.3532°
True anomaly
82.70709°
Mean anomaly
76.447°
Eccentric anomaly
79.56836°
Mean motion
3.52358 °/min
BSTAR
0.00030442
Orbital period
102.17 mins
Loading maneuver chart data...
Loading SW <> Apogee altitude chart data...

ATLAS CENTAUR 2 R/B Visibility forecast

Observer location: undefined°, undefined°

Span
Click to sort rows by Start time (UTC) header in descending order
Start Az.
Max El. time (UTC)
Max El. Az.
Max El.
End time (UTC)
End Az.
12 mins2025-05-09 06:25:22.465Z252.816° W2025-05-09 06:31:22.465Z201.646° SSW26.274°2025-05-09 06:37:22.465Z146.347° SSE
9 mins2025-05-10 00:50:22.465Z190.178° SSW2025-05-10 00:54:22.465Z148.888° SSE20.041°2025-05-10 00:59:22.465Z108.599° ESE
12 mins2025-05-10 02:36:22.465Z229.29° WSW2025-05-10 02:42:22.465Z162.433° S31.413°2025-05-10 02:48:22.465Z108.871° ESE
13 mins2025-05-10 04:24:22.465Z247.418° WSW2025-05-10 04:30:22.465Z186.667° SSW33.181°2025-05-10 04:37:22.465Z121.355° SE
|